Total_Precipitation_Accumulation
1.47 1.49 1.40 1.30 1.20 1.07 1.00 0.98 0.99 0.90 0.81 0.61 0.45 0.35 0.34 0.30 0.28 0.22 0.19 0.19 0.15 0.09 0.06 0.05 0.06 0.06 0.06 0.05 0.05 0.05 0.06 0.06 0.08 0.11 0.17 0.25 0.31 0.33
1.46 1.52 1.53 1.47 1.42 1.30 1.15 1.06 0.95 0.92 0.85 0.69 0.50 0.36 0.39 0.35 0.32 0.21 0.17 0.19 0.16 0.14 0.11 0.09 0.07 0.08 0.09 0.07 0.05 0.04 0.03 0.03 0.04 0.07 0.20 0.42 0.52 0.49
1.33 1.38 1.48 1.53 1.56 1.50 1.41 1.24 1.08 1.02 0.96 0.85 0.64 0.41 0.40 0.41 0.37 0.28 0.19 0.16 0.16 0.15 0.13 0.12 0.11 0.11 0.11 0.10 0.08 0.06 0.05 0.04 0.04 0.06 0.12 0.27 0.55 0.65
1.12 1.11 1.19 1.27 1.36 1.44 1.43 1.36 1.29 1.16 1.11 1.08 0.91 0.65 0.46 0.42 0.38 0.36 0.30 0.25 0.24 0.22 0.21 0.18 0.15 0.13 0.12 0.11 0.09 0.07 0.05 0.04 0.03 0.05 0.07 0.10 0.18 0.32
0.87 0.85 0.86 0.96 1.10 1.21 1.28 1.29 1.31 1.30 1.25 1.16 1.05 0.89 0.63 0.49 0.44 0.41 0.37 0.40 0.32 0.27 0.26 0.23 0.21 0.17 0.15 0.13 0.10 0.08 0.07 0.06 0.05 0.04 0.04 0.04 0.06 0.10
0.65 0.64 0.65 0.67 0.75 0.88 1.04 1.19 1.28 1.31 1.32 1.30 1.13 0.91 0.77 0.66 0.53 0.48 0.51 0.50 0.45 0.36 0.31 0.29 0.29 0.24 0.20 0.16 0.15 0.13 0.11 0.10 0.09 0.06 0.04 0.04 0.04 0.05
0.52 0.45 0.44 0.47 0.48 0.53 0.60 0.81 1.02 1.15 1.19 1.22 1.14 0.95 0.77 0.69 0.60 0.57 0.57 0.59 0.56 0.52 0.48 0.39 0.35 0.31 0.28 0.26 0.21 0.18 0.15 0.14 0.12 0.11 0.09 0.08 0.08 0.08
0.44 0.41 0.40 0.41 0.36 0.30 0.31 0.43 0.63 0.82 0.95 1.06 1.09 0.97 0.84 0.75 0.72 0.68 0.60 0.54 0.50 0.46 0.43 0.43 0.41 0.38 0.36 0.35 0.35 0.32 0.28 0.24 0.21 0.18 0.17 0.17 0.17 0.16
0.50 0.52 0.47 0.42 0.47 0.36 0.30 0.30 0.34 0.41 0.55 0.73 0.90 0.94 0.99 0.89 0.74 0.64 0.58 0.56 0.52 0.48 0.43 0.37 0.34 0.33 0.34 0.35 0.37 0.37 0.36 0.33 0.29 0.27 0.26 0.26 0.26 0.26
0.55 0.60 0.63 0.59 0.53 0.53 0.47 0.49 0.46 0.39 0.45 0.38 0.48 0.75 0.83 0.81 0.74 0.68 0.64 0.57 0.48 0.43 0.39 0.38 0.37 0.35 0.30 0.30 0.33 0.32 0.31 0.31 0.33 0.34 0.36 0.37 0.36 0.35
0.54 0.61 0.65 0.60 0.62 0.61 0.66 0.73 0.66 0.53 0.63 0.64 0.57 0.58 0.59 0.56 0.56 0.60 0.62 0.55 0.48 0.43 0.32 0.28 0.29 0.31 0.31 0.33 0.30 0.30 0.29 0.28 0.27 0.25 0.23 0.24 0.25 0.27
0.60 0.64 0.79 0.70 0.66 0.59 0.58 0.69 0.71 0.60 0.49 0.51 0.47 0.38 0.30 0.31 0.36 0.42 0.57 0.64 0.60 0.49 0.38 0.30 0.31 0.30 0.30 0.27 0.24 0.25 0.25 0.24 0.22 0.21 0.20 0.17 0.14 0.14
0.74 0.79 0.74 0.78 0.59 0.52 0.50 0.47 0.53 0.53 0.52 0.56 0.57 0.48 0.39 0.35 0.32 0.29 0.34 0.44 0.54 0.52 0.44 0.35 0.32 0.30 0.27 0.23 0.23 0.24 0.25 0.23 0.19 0.17 0.17 0.17 0.16 0.14
0.68 0.67 0.62 0.67 0.50 0.41 0.35 0.37 0.36 0.35 0.42 0.54 0.55 0.52 0.48 0.45 0.40 0.33 0.30 0.29 0.33 0.39 0.40 0.34 0.31 0.27 0.24 0.20 0.21 0.25 0.24 0.21 0.17 0.15 0.13 0.15 0.15 0.15
0.43 0.50 0.50 0.45 0.39 0.31 0.32 0.33 0.31 0.32 0.37 0.40 0.44 0.44 0.41 0.41 0.41 0.38 0.34 0.29 0.25 0.22 0.20 0.22 0.25 0.27 0.27 0.23 0.21 0.23 0.25 0.22 0.19 0.17 0.16 0.14 0.13 0.14
0.34 0.35 0.33 0.31 0.33 0.32 0.31 0.32 0.32 0.34 0.35 0.34 0.35 0.38 0.38 0.38 0.39 0.39 0.41 0.40 0.39 0.36 0.32 0.29 0.29 0.30 0.31 0.31 0.27 0.23 0.25 0.26 0.24 0.22 0.20 0.17 0.16 0.16
0.45 0.38 0.32 0.30 0.31 0.36 0.36 0.31 0.32 0.34 0.34 0.33 0.34 0.34 0.34 0.36 0.37 0.35 0.35 0.37 0.38 0.37 0.37 0.37 0.36 0.35 0.35 0.36 0.37 0.36 0.37 0.37 0.36 0.33 0.27 0.22 0.20 0.19
0.45 0.50 0.50 0.53 0.53 0.52 0.48 0.37 0.31 0.29 0.32 0.36 0.34 0.31 0.32 0.32 0.34 0.36 0.35 0.35 0.33 0.31 0.28 0.27 0.30 0.34 0.35 0.34 0.29 0.31 0.38 0.39 0.42 0.42 0.35 0.28 0.23 0.24
0.42 0.56 0.56 0.54 0.49 0.45 0.41 0.34 0.26 0.21 0.20 0.25 0.32 0.36 0.34 0.34 0.37 0.39 0.37 0.33 0.30 0.30 0.29 0.25 0.23 0.25 0.28 0.27 0.27 0.25 0.26 0.31 0.32 0.32 0.31 0.29 0.27 0.28
0.37 0.44 0.43 0.41 0.34 0.26 0.19 0.14 0.13 0.12 0.10 0.11 0.12 0.19 0.31 0.38 0.45 0.47 0.50 0.50 0.47 0.43 0.38 0.31 0.25 0.21 0.20 0.20 0.19 0.17 0.17 0.20 0.25 0.25 0.23 0.24 0.23 0.24
0.17 0.17 0.17 0.17 0.16 0.12 0.08 0.06 0.05 0.05 0.04 0.04 0.05 0.07 0.14 0.25 0.38 0.47 0.51 0.55 0.54 0.53 0.51 0.46 0.41 0.39 0.31 0.29 0.26 0.20 0.17 0.16 0.16 0.15 0.15 0.16 0.16 0.16
0.07 0.07 0.06 0.06 0.06 0.05 0.05 0.04 0.04 0.04 0.04 0.05 0.08 0.12 0.17 0.19 0.22 0.31 0.41 0.45 0.43 0.41 0.41 0.43 0.44 0.43 0.39 0.38 0.35 0.28 0.22 0.19 0.20 0.21 0.18 0.16 0.14 0.13
0.06 0.05 0.05 0.04 0.03 0.04 0.04 0.04 0.03 0.03 0.03 0.03 0.06 0.12 0.18 0.24 0.25 0.24 0.25 0.29 0.33 0.36 0.38 0.39 0.39 0.38 0.39 0.41 0.42 0.39 0.32 0.27 0.26 0.28 0.30 0.37 0.33 0.22